[[{"header":{"parameterUnit":"m.s-1","parameterCategory":1,"la1":30.2992,"la2":30.254,"lo1":-89.0895,"lo2":-89.0443,"dy":0.0025,"dx":0.0025,"nx":19,"ny":19,"refTime":"2026-04-17T09:00:00:Z","depth":0,"parameterNumber":2,"parameterNumberName":"U-component_of_WINDS"},"data":[0,0,0,0.686,0.6858,0.6791,0.6791,0.6719,0.6718,0,0,0,0,0,0,0,0,0,0,0,0.689,0.689,0.686,0.6858,0.6791,0.6791,0.6719,0.6718,0,0,0,0,0,0,0,0,0,0,0,0.689,0.689,0.689,0.6858,0.6791,0.6791,0.6719,0.6764,0,0,0,0,0,0,0,0,0,0,0.6827,0.6866,0.689,0.689,0.6858,0.6791,0.6791,0.6766,0.6761,0.6756,0,0.6755,0,0.6736,0.6715,0.6714,0,0,0,0.685,0.687,0.6842,0.689,0.6857,0.6791,0.6819,0.6763,0.6758,0.675,0.6754,0.6751,0.6734,0.6714,0.6714,0.671,0.671,0,0,0.6854,0.6883,0.6846,0.6839,0.6853,0.6821,0.6817,0.676,0.6766,0.6754,0.6749,0.6733,0.6714,0.6713,0.6709,0.671,0,0,0,0.687,0.6886,0.686,0.6843,0.683,0.682,0.6815,0.6768,0.6757,0.6748,0.6732,0.6713,0.6713,0.6709,0.671,0.6755,0,0,0,0.6872,0.6895,0.6862,0.6879,0.6831,0.6799,0.6825,0.6761,0.6754,0.6733,0.6713,0.6712,0.6709,0.6709,0.6753,0.6772,0,0,0,0.6891,0.6897,0.6891,0.6881,0.6853,0.6799,0.6784,0.6759,0.6745,0.6714,0.6712,0.6708,0.6709,0.6751,0.6768,0.6778,0,0,0,0.6919,0.6934,0.6893,0.6903,0.6854,0.6828,0.6784,0.6764,0.6743,0.6713,0.6709,0.671,0.6751,0.6766,0.6776,0.6791,0.68,0,0,0.6954,0.6939,0.6942,0.6904,0.6893,0.6836,0.6831,0.6784,0.6754,0.6726,0.6725,0.6754,0.6768,0.6777,0.6842,0.685,0,0,0,0.6963,0.6966,0.6957,0.6939,0.6903,0.6873,0.6824,0.6806,0.678,0.6746,0.6759,0.6767,0.6771,0.6777,0.6783,0.6784,0.6714,0.6714,0.6713,0.7054,0.7015,0.7017,0.6969,0.6952,0.69,0.6881,0.6848,0.6814,0.6817,0.6808,0.6853,0.686,0.6865,0.6866,0.6813,0.6814,0.6814,0.6814,0.7101,0.7097,0.705,0.7036,0.6993,0.698,0.6929,0.6905,0.6885,0.6857,0.6858,0.683,0.6874,0.6873,0.6817,0.6816,0.6816,0.6816,0.6816,0.7155,0.7146,0.7125,0.7092,0.7071,0.7022,0.7004,0.6966,0.693,0.6932,0.6917,0.6916,0.6909,0.6927,0.6927,0.6928,0.6928,0.6928,0.6928,0.722,0.7194,0.7184,0.7147,0.7128,0.71,0.7046,0.7026,0.6994,0.6968,0.6967,0.6931,0.6887,0.6876,0.693,0.693,0.6929,0.6929,0.6929,0.728,0.726,0.7246,0.7228,0.7178,0.7159,0.711,0.7073,0.7051,0.7043,0.7006,0.698,0.6962,0.6956,0.6947,0.7016,0.7016,0.7016,0.7016,0.7325,0.7312,0.7288,0.7261,0.723,0.7184,0.7166,0.7123,0.7075,0.7059,0.7043,0.7027,0.7024,0.7007,0.7001,0.6991,0.707,0.7071,0.7071,0.7359,0.7341,0.7334,0.7288,0.7246,0.7211,0.7192,0.7161,0.7103,0.7072,0.7044,0.7042,0.7016,0.701,0.6979,0.697,0.6952,0,0]},{"header":{"parameterUnit":"m.s-1","parameterCategory":1,"la1":30.2992,"la2":30.254,"lo1":-89.0895,"lo2":-89.0443,"dy":0.0025,"dx":0.0025,"nx":19,"ny":19,"refTime":"2026-04-17T09:00:00:Z","depth":0,"parameterNumber":3,"parameterNumberName":"V-component_of_WINDS"},"data":[0,0,0,4.7557,4.7555,4.7414,4.7413,4.7273,4.7273,0,0,0,0,0,0,0,0,0,0,0,4.7627,4.7627,4.7557,4.7554,4.7414,4.7413,4.7274,4.7273,0,0,0,0,0,0,0,0,0,0,0,4.7627,4.7627,4.7627,4.7554,4.7414,4.7413,4.7274,4.7364,0,0,0,0,0,0,0,0,0,0,4.7493,4.7587,4.7627,4.7627,4.7553,4.7415,4.7413,4.7368,4.7359,4.7355,0,4.7364,0,4.7317,4.7266,4.7266,0,0,0,4.7532,4.7596,4.7532,4.7627,4.7552,4.7415,4.7471,4.7362,4.7352,4.7343,4.7362,4.7355,4.7315,4.7266,4.7265,4.733,4.7332,0,0,4.7539,4.7616,4.754,4.7527,4.7556,4.7476,4.7467,4.7355,4.7379,4.7361,4.7351,4.7312,4.7265,4.7264,4.7329,4.7331,0,0,0,4.7577,4.7623,4.7561,4.7534,4.7506,4.7472,4.7462,4.7384,4.7357,4.7349,4.7311,4.7264,4.7263,4.7327,4.733,4.7473,0,0,0,4.758,4.7644,4.7566,4.7611,4.7509,4.7444,4.7494,4.7365,4.735,4.7311,4.7264,4.7262,4.7326,4.7329,4.7466,4.7528,0,0,0,4.7626,4.7649,4.7639,4.7616,4.7559,4.7444,4.7411,4.736,4.7328,4.7266,4.7262,4.7325,4.7328,4.7459,4.7517,4.7567,0,0,0,4.7696,4.7768,4.7643,4.7707,4.756,4.7536,4.741,4.7387,4.7351,4.7264,4.7326,4.7329,4.7457,4.751,4.7561,4.7624,4.7657,0,0,4.7829,4.7787,4.7818,4.7702,4.772,4.7551,4.7587,4.7479,4.7401,4.7357,4.7358,4.7468,4.7516,4.7566,4.782,4.7848,0,0,0,4.7886,4.791,4.7897,4.7869,4.7791,4.7727,4.7607,4.7566,4.7526,4.7396,4.7498,4.7524,4.7549,4.7576,4.7599,4.7615,4.7345,4.7345,4.7345,4.8184,4.8082,4.8127,4.8008,4.7982,4.7856,4.7824,4.7747,4.765,4.7676,4.7662,4.783,4.7864,4.7881,4.7899,4.7687,4.7688,4.7688,4.7689,4.8369,4.8386,4.8257,4.8254,4.8144,4.8139,4.8019,4.7951,4.7927,4.7832,4.7849,4.7755,4.7914,4.7925,4.7698,4.7697,4.7696,4.7695,4.7694,4.8552,4.8543,4.8494,4.8442,4.8411,4.8286,4.827,4.8169,4.8074,4.8092,4.8065,4.8062,4.8046,4.8086,4.8087,4.8087,4.8088,4.8088,4.8089,4.8762,4.8703,4.8704,4.8627,4.8594,4.8538,4.8412,4.8375,4.8308,4.8236,4.8235,4.8135,4.795,4.7905,4.8097,4.8096,4.8095,4.8094,4.8093,4.8987,4.892,4.8922,4.889,4.8789,4.8765,4.8637,4.8571,4.8525,4.852,4.8415,4.8295,4.8243,4.8224,4.8186,4.8439,4.8439,4.8439,4.8439,4.9142,4.9106,4.9085,4.904,4.8983,4.8868,4.8868,4.8769,4.8655,4.862,4.8568,4.851,4.8495,4.8451,4.8426,4.839,4.8689,4.8689,4.8689,4.9273,4.9227,4.925,4.9142,4.9055,4.8982,4.8978,4.8927,4.8783,4.8697,4.8589,4.8579,4.8483,4.8457,4.837,4.8334,4.8264,0,0]}]]